Back to catalog

WESTFORD NEEDLES

LostPO
NORAD 2530·DEBRIS·🇺🇸 United States

Launched May 9, 1963 from Vandenberg Space Force Base

Loading…

Next Passes (next 24 hours)

TLE

StaleSource: Space-Track

Epoch: Feb 27, 2026, 06:22 UTC

1 02530U 63014AJ  26058.26534343  .00001885  00000-0  74043+0 0  9994
2 02530  87.6001 164.2162 0535817 270.7868 106.3405  8.68329942930061

Track WESTFORD NEEDLES in real time with AllMySat

Download on the App Store